Tracking 35030 objects as of 9-Aug-2026
HD Live streaming from Space Station
objects crossing your sky now

SHIYAN 21 (SY-21)

Track SHIYAN 21 (SY-21) now!
10-day predictions


NORAD ID: 54752
Int'l Code: 2022-172A
Launch date: December 16, 2022
Source: People's Republic of China (PRC)
Launch site: Xichang Space Center, China (XSC)
Your satellite tracking list
Your tracking list is empty




NASA's NSSDC Master Catalog

Two Line Element Set (TLE):
1 54752U 22172A   26219.42412028  .00004662  00000-0  16874-3 0  9997
2 54752  35.9883 111.3454 0028032 333.5422  26.3880 15.27697237203525
Source of the keplerian elements: AFSPC